EIN850 EICK-LEBB

Flight info

Callsign EIN850
Flight time 1h 36m
Altitude 23000
Route ERTER1S ERTER DCT LEDGO N160 EVCOR/N0454F370 DCT DOLUR DCT IDRIK DCT NENEM N867 MAPAX
Aircraft A320/M-SDE3FGHIRWY/LB1

Departure

Time 2026-05-06 19:48
Airport Cork International Airport (EICK)

Arrival

Time 2026-05-06 21:25
Airport Bilbao Airport (LEBB)
Time Latitude Longitude Altitude Speed Heading
2026-05-06 19:21 51.84894 -8.49076 503 ft 0 kts 69°
2026-05-06 19:42 51.84892 -8.49083 503 ft 3 kts 70°
2026-05-06 19:42 51.84885 -8.49124 503 ft 4 kts 81°
2026-05-06 19:43 51.84883 -8.49168 503 ft 4 kts 89°
2026-05-06 19:43 51.84882 -8.49211 503 ft 4 kts 86°
2026-05-06 19:43 51.84876 -8.49245 503 ft 4 kts 46°
2026-05-06 19:43 51.84895 -8.49253 503 ft 4 kts 346°
2026-05-06 19:44 51.84876 -8.49246 503 ft 4 kts 342°
2026-05-06 19:44 51.84862 -8.49238 503 ft 0 kts 339°
2026-05-06 19:46 51.84937 -8.49272 503 ft 14 kts 348°
2026-05-06 19:46 51.85011 -8.49306 503 ft 10 kts 342°
2026-05-06 19:46 51.85073 -8.49343 503 ft 9 kts 338°
2026-05-06 19:47 51.85128 -8.49380 503 ft 8 kts 333°
2026-05-06 19:47 51.85140 -8.49466 499 ft 12 kts 245°
2026-05-06 19:47 51.85045 -8.49551 483 ft 19 kts 204°
2026-05-06 19:47 51.84915 -8.49571 481 ft 22 kts 159°
2026-05-06 19:48 51.84570 -8.49368 483 ft 89 kts 160°
2026-05-06 19:48 51.83778 -8.48900 476 ft 149 kts 160°
2026-05-06 19:48 51.82746 -8.48276 913 ft 163 kts 160°
2026-05-06 19:48 51.81639 -8.47693 1559 ft 172 kts 166°
2026-05-06 19:49 51.80459 -8.47149 2157 ft 179 kts 164°
2026-05-06 19:49 51.79252 -8.46427 2698 ft 192 kts 149°
2026-05-06 19:49 51.78273 -8.44907 3290 ft 201 kts 135°
2026-05-06 19:49 51.77269 -8.43275 3916 ft 207 kts 135°
2026-05-06 19:50 51.76287 -8.41496 4510 ft 218 kts 132°
2026-05-06 19:50 51.75251 -8.39603 5179 ft 229 kts 133°
2026-05-06 19:50 51.74183 -8.37713 5984 ft 234 kts 134°
2026-05-06 19:50 51.73054 -8.35731 6779 ft 241 kts 134°
2026-05-06 19:51 51.71905 -8.33713 7541 ft 247 kts 134°
2026-05-06 19:51 51.70722 -8.31633 8086 ft 266 kts 133°
2026-05-06 19:51 51.69434 -8.29363 8698 ft 280 kts 134°
2026-05-06 19:51 51.68086 -8.26985 9529 ft 287 kts 133°
2026-05-06 19:52 51.66745 -8.24617 10229 ft 297 kts 133°
2026-05-06 19:52 51.65296 -8.22060 10521 ft 321 kts 133°
2026-05-06 19:52 51.63737 -8.19311 10759 ft 344 kts 133°
2026-05-06 19:52 51.62055 -8.16341 11154 ft 360 kts 134°
2026-05-06 19:53 51.60377 -8.13376 11814 ft 366 kts 133°
2026-05-06 19:53 51.58650 -8.10336 12560 ft 370 kts 134°
2026-05-06 19:53 51.56871 -8.07276 13009 ft 383 kts 135°
2026-05-06 19:53 51.54941 -8.04171 13141 ft 402 kts 136°
2026-05-06 19:54 51.52885 -8.01005 13398 ft 415 kts 137°
2026-05-06 19:54 51.50774 -7.97808 14022 ft 418 kts 138°
2026-05-06 19:54 51.48661 -7.94610 14712 ft 417 kts 137°
2026-05-06 19:54 51.46562 -7.91416 15464 ft 416 kts 137°
2026-05-06 19:55 51.44475 -7.88216 16206 ft 415 kts 137°
2026-05-06 19:55 51.42396 -7.85015 16933 ft 414 kts 137°
2026-05-06 19:55 51.40320 -7.81810 17697 ft 413 kts 137°
2026-05-06 19:55 51.38257 -7.78623 18454 ft 412 kts 137°
2026-05-06 19:56 51.36192 -7.75438 19134 ft 411 kts 137°
2026-05-06 19:56 51.34131 -7.72269 19820 ft 410 kts 137°
2026-05-06 19:56 51.32075 -7.69115 20504 ft 410 kts 137°
2026-05-06 19:56 51.30018 -7.65968 21180 ft 409 kts 137°
2026-05-06 19:57 51.27955 -7.62823 21864 ft 409 kts 137°
2026-05-06 19:57 51.25897 -7.59693 22528 ft 409 kts 137°
2026-05-06 19:57 51.23835 -7.56559 23222 ft 409 kts 137°
2026-05-06 19:57 51.21774 -7.53432 23865 ft 408 kts 137°
2026-05-06 19:58 51.19718 -7.50327 24467 ft 407 kts 137°
2026-05-06 19:58 51.17667 -7.47235 25091 ft 405 kts 137°
2026-05-06 19:58 51.15623 -7.44158 25716 ft 403 kts 137°
2026-05-06 19:58 51.13587 -7.41099 26340 ft 401 kts 137°
2026-05-06 19:59 51.11560 -7.38058 26965 ft 400 kts 137°
2026-05-06 19:59 51.09541 -7.35033 27575 ft 398 kts 137°
2026-05-06 19:59 51.07524 -7.32011 28158 ft 398 kts 137°
2026-05-06 19:59 51.05515 -7.29003 28772 ft 396 kts 137°
2026-05-06 20:00 51.03508 -7.26005 29374 ft 395 kts 137°
2026-05-06 20:00 51.01507 -7.23024 29976 ft 394 kts 137°
2026-05-06 20:00 50.99511 -7.20052 30495 ft 393 kts 137°
2026-05-06 20:00 50.97521 -7.17093 30984 ft 392 kts 137°
2026-05-06 20:01 50.95535 -7.14146 31473 ft 391 kts 136°
2026-05-06 20:01 50.93553 -7.11205 31962 ft 390 kts 136°
2026-05-06 20:01 50.91576 -7.08275 32451 ft 388 kts 136°
2026-05-06 20:01 50.89602 -7.05359 32916 ft 388 kts 137°
2026-05-06 20:02 50.87625 -7.02439 33332 ft 388 kts 137°
2026-05-06 20:02 50.85652 -6.99528 33753 ft 388 kts 137°
2026-05-06 20:02 50.83674 -6.96622 34150 ft 388 kts 137°
2026-05-06 20:02 50.81696 -6.93720 34490 ft 387 kts 137°
2026-05-06 20:03 50.79725 -6.90828 34799 ft 387 kts 137°
2026-05-06 20:03 50.77748 -6.87930 35115 ft 387 kts 137°
2026-05-06 20:03 50.75771 -6.85034 35417 ft 388 kts 137°
2026-05-06 20:03 50.73793 -6.82142 35679 ft 389 kts 137°
2026-05-06 20:04 50.71800 -6.79237 35905 ft 391 kts 137°
2026-05-06 20:04 50.69796 -6.76320 36120 ft 393 kts 137°
2026-05-06 20:04 50.67783 -6.73391 36334 ft 395 kts 137°
2026-05-06 20:04 50.65756 -6.70449 36519 ft 397 kts 137°
2026-05-06 20:05 50.63716 -6.67490 36712 ft 399 kts 137°
2026-05-06 20:05 50.61669 -6.64517 36902 ft 401 kts 137°
2026-05-06 20:05 50.59609 -6.61528 37011 ft 404 kts 137°
2026-05-06 20:05 50.57541 -6.58532 37024 ft 405 kts 137°
2026-05-06 20:06 50.53398 -6.52543 37024 ft 405 kts 137°
2026-05-06 20:06 50.49249 -6.46564 37027 ft 405 kts 138°
2026-05-06 20:07 50.45096 -6.40601 37027 ft 405 kts 138°
2026-05-06 20:07 50.40943 -6.34638 37026 ft 405 kts 138°
2026-05-06 20:08 50.36782 -6.28689 37026 ft 405 kts 138°
2026-05-06 20:08 50.32623 -6.22753 37028 ft 405 kts 138°
2026-05-06 20:09 50.28459 -6.16834 37028 ft 404 kts 138°
2026-05-06 20:09 50.24290 -6.10926 37024 ft 404 kts 138°
2026-05-06 20:10 50.20121 -6.05022 37020 ft 404 kts 138°
2026-05-06 20:10 50.15957 -5.99128 37021 ft 404 kts 139°
2026-05-06 20:11 50.11786 -5.93249 37022 ft 404 kts 139°
2026-05-06 20:11 50.07612 -5.87383 37020 ft 404 kts 139°
2026-05-06 20:12 50.03434 -5.81536 37008 ft 404 kts 139°
2026-05-06 20:12 49.99253 -5.75683 37011 ft 404 kts 139°
2026-05-06 20:13 49.95076 -5.69839 37014 ft 404 kts 139°
2026-05-06 20:13 49.90889 -5.64018 37008 ft 404 kts 139°
2026-05-06 20:14 49.86695 -5.58213 37005 ft 404 kts 139°
2026-05-06 20:14 49.82506 -5.52408 36997 ft 404 kts 139°
2026-05-06 20:15 49.78319 -5.46608 37000 ft 404 kts 139°
2026-05-06 20:15 49.74127 -5.40828 37004 ft 404 kts 139°
2026-05-06 20:16 49.69959 -5.35097 37004 ft 404 kts 139°
2026-05-06 20:16 49.65757 -5.29333 37007 ft 404 kts 139°
2026-05-06 20:17 49.61559 -5.23585 37001 ft 404 kts 139°
2026-05-06 20:17 49.57363 -5.17860 37011 ft 404 kts 140°
2026-05-06 20:18 49.53152 -5.12136 37012 ft 404 kts 140°
2026-05-06 20:18 49.48888 -5.06523 37014 ft 403 kts 146°
2026-05-06 20:19 49.44060 -5.02274 37014 ft 401 kts 155°
2026-05-06 20:19 49.39084 -4.98411 37012 ft 401 kts 154°
2026-05-06 20:20 49.34109 -4.94540 37012 ft 401 kts 154°
2026-05-06 20:20 49.29139 -4.90664 37014 ft 401 kts 154°
2026-05-06 20:21 49.25004 -4.87455 37014 ft 401 kts 154°
2026-05-06 20:21 49.20025 -4.83603 37008 ft 401 kts 154°
2026-05-06 20:22 49.15050 -4.79757 37012 ft 401 kts 154°
2026-05-06 20:22 49.10075 -4.75921 37012 ft 401 kts 155°
2026-05-06 20:23 49.05096 -4.72095 37013 ft 401 kts 155°
2026-05-06 20:23 49.00078 -4.68257 37014 ft 400 kts 155°
2026-05-06 20:24 48.95100 -4.64452 37011 ft 400 kts 155°
2026-05-06 20:24 48.90159 -4.60664 37013 ft 400 kts 155°
2026-05-06 20:25 48.85182 -4.56865 37011 ft 400 kts 155°
2026-05-06 20:25 48.80206 -4.53076 37009 ft 400 kts 155°
2026-05-06 20:26 48.75224 -4.49306 37019 ft 400 kts 155°
2026-05-06 20:26 48.70242 -4.45549 37014 ft 400 kts 155°
2026-05-06 20:27 48.65232 -4.41757 37026 ft 400 kts 155°
2026-05-06 20:27 48.60293 -4.38027 37020 ft 400 kts 155°
2026-05-06 20:28 48.55307 -4.34277 37019 ft 400 kts 155°
2026-05-06 20:28 48.50329 -4.30551 37019 ft 400 kts 155°
2026-05-06 20:29 48.45353 -4.26816 37021 ft 399 kts 155°
2026-05-06 20:29 48.40372 -4.23096 37016 ft 399 kts 155°
2026-05-06 20:30 48.32898 -4.17536 37005 ft 399 kts 155°
2026-05-06 20:31 48.27919 -4.13846 37012 ft 399 kts 155°
2026-05-06 20:31 48.22938 -4.10152 37009 ft 399 kts 155°
2026-05-06 20:32 48.17964 -4.06461 36993 ft 399 kts 155°
2026-05-06 20:32 48.12984 -4.02779 36987 ft 399 kts 155°
2026-05-06 20:33 48.08008 -3.99114 36994 ft 399 kts 155°
2026-05-06 20:33 48.02888 -3.96105 36988 ft 394 kts 173°
2026-05-06 20:34 47.97466 -3.94873 36985 ft 394 kts 173°
2026-05-06 20:34 47.92040 -3.93704 36980 ft 394 kts 173°
2026-05-06 20:35 47.86611 -3.92529 36988 ft 394 kts 173°
2026-05-06 20:35 47.81180 -3.91353 36990 ft 394 kts 173°
2026-05-06 20:36 47.75747 -3.90174 36985 ft 394 kts 173°
2026-05-06 20:36 47.70320 -3.88994 36987 ft 394 kts 173°
2026-05-06 20:37 47.64888 -3.87813 36985 ft 394 kts 173°
2026-05-06 20:37 47.59453 -3.86646 36990 ft 394 kts 173°
2026-05-06 20:38 47.54024 -3.85476 36989 ft 394 kts 173°
2026-05-06 20:38 47.48597 -3.84307 36988 ft 394 kts 173°
2026-05-06 20:39 47.43171 -3.83142 36988 ft 394 kts 173°
2026-05-06 20:39 47.37778 -3.81992 36991 ft 394 kts 173°
2026-05-06 20:40 47.32349 -3.80831 36995 ft 394 kts 173°
2026-05-06 20:40 47.26925 -3.79674 36990 ft 394 kts 173°
2026-05-06 20:41 47.21503 -3.78518 36999 ft 394 kts 173°
2026-05-06 20:41 47.16084 -3.77368 36999 ft 393 kts 173°
2026-05-06 20:42 47.10665 -3.76218 36992 ft 393 kts 173°
2026-05-06 20:42 47.05246 -3.75076 37001 ft 393 kts 173°
2026-05-06 20:43 46.99831 -3.73941 37000 ft 393 kts 174°
2026-05-06 20:43 46.94419 -3.72797 37001 ft 393 kts 173°
2026-05-06 20:44 46.89009 -3.71656 36996 ft 393 kts 173°
2026-05-06 20:44 46.83600 -3.70521 37000 ft 393 kts 174°
2026-05-06 20:45 46.78191 -3.69387 37001 ft 393 kts 174°
2026-05-06 20:45 46.72785 -3.68256 37005 ft 392 kts 174°
2026-05-06 20:46 46.67382 -3.67129 37005 ft 392 kts 174°
2026-05-06 20:46 46.61977 -3.66006 37008 ft 392 kts 174°
2026-05-06 20:47 46.56573 -3.64874 37010 ft 392 kts 174°
2026-05-06 20:47 46.51172 -3.63759 37006 ft 392 kts 174°
2026-05-06 20:48 46.45771 -3.62645 37005 ft 392 kts 174°
2026-05-06 20:48 46.40369 -3.61533 37007 ft 392 kts 174°
2026-05-06 20:49 46.34966 -3.60420 37011 ft 392 kts 174°
2026-05-06 20:49 46.29567 -3.59307 37010 ft 392 kts 174°
2026-05-06 20:50 46.24163 -3.58197 37017 ft 392 kts 174°
2026-05-06 20:50 46.18760 -3.57092 37008 ft 392 kts 174°
2026-05-06 20:51 46.13360 -3.55985 37017 ft 392 kts 174°
2026-05-06 20:51 46.07954 -3.54888 37004 ft 392 kts 174°
2026-05-06 20:52 46.02555 -3.53791 37009 ft 392 kts 174°
2026-05-06 20:52 45.97161 -3.52692 37011 ft 392 kts 174°
2026-05-06 20:53 45.91766 -3.51599 37020 ft 391 kts 174°
2026-05-06 20:53 45.86386 -3.50509 37009 ft 391 kts 174°
2026-05-06 20:54 45.80996 -3.49417 37014 ft 391 kts 174°
2026-05-06 20:54 45.75608 -3.48334 37016 ft 391 kts 174°
2026-05-06 20:55 45.70256 -3.47246 37005 ft 391 kts 174°
2026-05-06 20:55 45.64836 -3.46157 37009 ft 391 kts 174°
2026-05-06 20:56 45.59484 -3.45093 37011 ft 391 kts 174°
2026-05-06 20:56 45.54104 -3.44018 37012 ft 391 kts 174°
2026-05-06 20:57 45.48683 -3.42945 37009 ft 390 kts 174°
2026-05-06 20:57 45.43353 -3.41885 37012 ft 390 kts 174°
2026-05-06 20:58 45.37973 -3.40812 37017 ft 390 kts 174°
2026-05-06 20:58 45.32601 -3.39744 37004 ft 390 kts 174°
2026-05-06 20:59 45.27226 -3.38679 37009 ft 390 kts 174°
2026-05-06 20:59 45.21854 -3.37619 37012 ft 390 kts 174°
2026-05-06 21:00 45.16482 -3.36549 37017 ft 390 kts 174°
2026-05-06 21:00 45.11111 -3.35485 37011 ft 389 kts 174°
2026-05-06 21:01 45.05745 -3.34428 37014 ft 389 kts 174°
2026-05-06 21:01 45.00380 -3.33386 37014 ft 389 kts 174°
2026-05-06 21:02 44.95012 -3.32336 37023 ft 389 kts 174°
2026-05-06 21:02 44.89634 -3.31285 37035 ft 395 kts 174°
2026-05-06 21:03 44.84087 -3.30202 37035 ft 409 kts 174°
2026-05-06 21:03 44.78353 -3.29084 37035 ft 423 kts 174°
2026-05-06 21:04 44.72437 -3.27936 37033 ft 434 kts 174°
2026-05-06 21:04 44.67450 -3.26974 37035 ft 436 kts 174°
2026-05-06 21:04 44.64443 -3.26395 36743 ft 440 kts 174°
2026-05-06 21:05 44.61396 -3.25805 35987 ft 442 kts 174°
2026-05-06 21:05 44.58344 -3.25213 35245 ft 443 kts 174°
2026-05-06 21:05 44.55304 -3.24624 34742 ft 438 kts 174°
2026-05-06 21:05 44.52300 -3.24042 34158 ft 436 kts 174°
2026-05-06 21:06 44.49308 -3.23466 33432 ft 435 kts 174°
2026-05-06 21:06 44.46308 -3.22892 32625 ft 435 kts 174°
2026-05-06 21:06 44.43307 -3.22320 31798 ft 436 kts 174°
2026-05-06 21:06 44.40288 -3.21744 30957 ft 438 kts 174°
2026-05-06 21:07 44.37292 -3.21167 30558 ft 429 kts 173°
2026-05-06 21:07 44.34373 -3.20602 30189 ft 420 kts 173°
2026-05-06 21:07 44.31486 -3.20046 29506 ft 418 kts 173°
2026-05-06 21:07 44.28609 -3.19496 28714 ft 418 kts 173°
2026-05-06 21:08 44.25726 -3.18950 27890 ft 419 kts 173°
2026-05-06 21:08 44.22831 -3.18400 27038 ft 420 kts 173°
2026-05-06 21:08 44.19954 -3.17851 26196 ft 422 kts 173°
2026-05-06 21:08 44.17044 -3.17294 25332 ft 423 kts 173°
2026-05-06 21:09 44.14132 -3.16736 24663 ft 420 kts 173°
2026-05-06 21:09 44.11258 -3.16188 24054 ft 415 kts 173°
2026-05-06 21:09 44.08407 -3.15646 23430 ft 411 kts 173°
2026-05-06 21:09 44.05585 -3.15111 22751 ft 408 kts 173°
2026-05-06 21:10 44.02793 -3.14491 22117 ft 404 kts 171°
2026-05-06 21:10 44.00053 -3.13745 21518 ft 400 kts 169°
2026-05-06 21:10 43.97343 -3.12926 20935 ft 396 kts 168°
2026-05-06 21:10 43.94664 -3.12085 20380 ft 393 kts 168°
2026-05-06 21:11 43.92006 -3.11258 19845 ft 389 kts 168°
2026-05-06 21:11 43.89371 -3.10459 19321 ft 386 kts 168°
2026-05-06 21:11 43.86754 -3.09691 18805 ft 383 kts 169°
2026-05-06 21:11 43.84157 -3.08941 18282 ft 380 kts 169°
2026-05-06 21:12 43.81578 -3.08250 17703 ft 376 kts 174°
2026-05-06 21:12 43.78983 -3.08338 17107 ft 369 kts 191°
2026-05-06 21:12 43.76547 -3.09189 16469 ft 354 kts 195°
2026-05-06 21:12 43.74218 -3.10072 15861 ft 342 kts 196°
2026-05-06 21:13 43.71918 -3.10953 15252 ft 344 kts 196°
2026-05-06 21:13 43.69602 -3.11843 14636 ft 347 kts 196°
2026-05-06 21:13 43.67279 -3.12737 14033 ft 349 kts 196°
2026-05-06 21:13 43.64933 -3.13640 13388 ft 351 kts 196°
2026-05-06 21:14 43.62581 -3.14541 12727 ft 351 kts 196°
2026-05-06 21:14 43.60225 -3.15436 12075 ft 351 kts 196°
2026-05-06 21:14 43.57868 -3.16330 11435 ft 350 kts 196°
2026-05-06 21:14 43.55523 -3.17218 10813 ft 349 kts 196°
2026-05-06 21:15 43.53200 -3.18098 10166 ft 340 kts 196°
2026-05-06 21:15 43.50953 -3.18949 9285 ft 330 kts 196°
2026-05-06 21:15 43.48766 -3.19779 8400 ft 322 kts 196°
2026-05-06 21:15 43.46618 -3.20534 7526 ft 315 kts 192°
2026-05-06 21:16 43.44611 -3.21466 7218 ft 294 kts 212°
2026-05-06 21:16 43.43145 -3.23273 7115 ft 279 kts 233°
2026-05-06 21:16 43.42230 -3.25586 7016 ft 274 kts 252°
2026-05-06 21:16 43.41884 -3.28133 6917 ft 273 kts 269°
2026-05-06 21:17 43.42139 -3.30703 6816 ft 271 kts 288°
2026-05-06 21:17 43.42982 -3.33006 6719 ft 271 kts 308°
2026-05-06 21:17 43.44383 -3.34712 6642 ft 271 kts 330°
2026-05-06 21:17 43.46174 -3.35489 6567 ft 272 kts 355°
2026-05-06 21:18 43.48037 -3.35151 6492 ft 273 kts 20°
2026-05-06 21:18 43.49636 -3.33756 6376 ft 275 kts 45°
2026-05-06 21:18 43.50666 -3.31571 6113 ft 274 kts 70°
2026-05-06 21:18 43.50937 -3.28995 5853 ft 273 kts 95°
2026-05-06 21:19 43.50412 -3.26512 5600 ft 272 kts 120°
2026-05-06 21:19 43.49187 -3.24568 5368 ft 270 kts 144°
2026-05-06 21:19 43.47520 -3.23385 5197 ft 271 kts 156°
2026-05-06 21:19 43.45791 -3.22353 5025 ft 270 kts 156°
2026-05-06 21:20 43.44087 -3.21334 4820 ft 264 kts 156°
2026-05-06 21:20 43.42416 -3.20331 4613 ft 262 kts 156°
2026-05-06 21:20 43.40800 -3.19197 4417 ft 257 kts 141°
2026-05-06 21:20 43.39692 -3.17383 4237 ft 245 kts 117°
2026-05-06 21:21 43.38936 -3.15317 3923 ft 236 kts 115°
2026-05-06 21:21 43.38224 -3.13317 3618 ft 232 kts 115°
2026-05-06 21:21 43.37511 -3.11345 3295 ft 228 kts 116°
2026-05-06 21:21 43.36824 -3.09457 2987 ft 214 kts 116°
2026-05-06 21:22 43.36178 -3.07682 2727 ft 200 kts 116°
2026-05-06 21:22 43.35577 -3.06033 2418 ft 185 kts 116°
2026-05-06 21:22 43.35025 -3.04518 2179 ft 171 kts 116°
2026-05-06 21:22 43.34503 -3.03086 1945 ft 165 kts 116°
2026-05-06 21:23 43.33991 -3.01683 1713 ft 164 kts 116°
2026-05-06 21:23 43.33488 -3.00286 1451 ft 163 kts 117°
2026-05-06 21:23 43.32979 -2.98904 1180 ft 162 kts 117°
2026-05-06 21:23 43.32461 -2.97532 966 ft 161 kts 117°
2026-05-06 21:24 43.31952 -2.96165 787 ft 161 kts 116°
2026-05-06 21:24 43.31464 -2.94794 533 ft 158 kts 115°
2026-05-06 21:24 43.31001 -2.93481 338 ft 153 kts 115°
2026-05-06 21:24 43.30532 -2.92207 147 ft 149 kts 115°
2026-05-06 21:25 43.30118 -2.91079 125 ft 107 kts 117°
2026-05-06 21:25 43.29870 -2.90405 125 ft 47 kts 117°
2026-05-06 21:25 43.29738 -2.90040 127 ft 40 kts 116°
2026-05-06 21:25 43.29655 -2.89772 125 ft 22 kts 104°
2026-05-06 21:26 43.29689 -2.89621 132 ft 16 kts 53°
2026-05-06 21:26 43.29774 -2.89636 132 ft 16 kts 306°
2026-05-06 21:26 43.29820 -2.89763 132 ft 14 kts 296°
2026-05-06 21:26 43.29863 -2.89878 132 ft 13 kts 296°
2026-05-06 21:27 43.29919 -2.90029 132 ft 25 kts 297°
2026-05-06 21:27 43.30000 -2.90251 132 ft 22 kts 296°
2026-05-06 21:27 43.30068 -2.90436 132 ft 23 kts 296°
2026-05-06 21:27 43.30136 -2.90576 132 ft 13 kts 341°
2026-05-06 21:28 43.30217 -2.90529 132 ft 11 kts 22°
2026-05-06 21:28 43.30286 -2.90558 132 ft 10 kts 327°
2026-05-06 21:28 43.30342 -2.90610 132 ft 9 kts 335°
2026-05-06 21:28 43.30370 -2.90605 132 ft 4 kts 21°
2026-05-06 21:29 43.30390 -2.90591 132 ft 3 kts 30°
2026-05-06 21:29 43.30407 -2.90579 132 ft 2 kts 26°
2026-05-06 21:29 43.30410 -2.90577 132 ft 0 kts 26°